Showing default

TJS-23, 67226

Orbit data source: Space-Track

TJS-23, 67226 is a Chinese payload satellite in GEO that was launched on Sat, 20 Dec 2025 UTC via a CHANG ZHENG 5 launch vehicle from the Wenchang Satellite Launch Center (WSC). Payload-class satellites include a variety of spacecraft equipped with specific instruments for various scientific and technological missions. These include communications satellites like Starlink; space stations such as the ISS; scientific satellites like the Hubble; Earth observation satellites from companies like Planet Labs, Umbra, and HawkEye 360; GPS; miniature CubeSats for education and research; and military/defense satellites.

Not visible in the next 10 days
Identifier
67226, 2025-306A
Orbit
GEO
Country
Flag of CNCN / PRC
Related business
Manufacturer
CAST
Mission
Operational Defense Sigint
Bus & Motor
TJS11, Unknown motor
Mass
~10,000 kg wet, ~6,000 kg dry
Launch date (UTC)
2025-12-20 (5 months ago)
Launch vehicle
CHANG ZHENG 5
Launch site
Wenchang Satellite Launch Center (WSC)
Object type
Payload
Rocket body
Debris
Shape & HBR
Box + 2 Pan + 1 Dish, 1.1 m
Radar Cross Section
63.841 m²

Expand to show TLE details & history
Last TLE update: 8 hours ago

TLE from 8 hours ago
0 TJS-23
1 67226U 25306A   26138.68251662  .00000016  00000-0  00000+0 0  9991
2 67226   5.6549 297.6417 0004605 150.8039 209.1926  1.00268242  1590
Epoch: 2026-05-18T16:22Z
TLE epoch observation values (Epoch: 2026-05-18T16:22:49.435Z)
Latitude
-0°
Longitude
175.5206°
Altitude
35,804.042 km
Speed
3.073 km/s
True Right ascension
19h 50m 22s
True Declination
0° 00' 00"
Sunlit
Object was in daylight at epoch
Visualization orbit readout
Latitude
Unknown
Longitude
Unknown
Altitude
Unknown
Speed
Unknown
Apparent Right ascension
Unknown
Apparent Declination
Unknown
Sunlit
N/A
Visualization observer readout
Local Sidereal Time
09:19:44
Azimuth
Unknown
Elevation
Unknown
Doppler factor
Unknown
Orbital elements
Apogee altitude
35,808.061 km
Perigee altitude
35,769.226 km
Semi-major axis
42,166.78 km
Eccentricity
0.00046
Inclination
5.6549°
RAAN
297.6417°
Arg. of periapsis
150.8039°
True anomaly
209.16687°
Mean anomaly
209.1926°
Eccentric anomaly
209.17974°
Mean motion
0.25066 °/min
Orbital period
1,436.2 mins
BSTAR
0
Loading maneuver chart data...
Computing Atmospheric mass density...
Loading historical data...
Loading historical data...
Loading historical data...
Loading historical data...
Loading historical data...
Loading historical data...
Loading historical data...
Other satellites on launch #306 in the year 2025 (2025-12-20 UTC)

Documentation

Showing up to 5 results
|